map of OSI home
OSI - Airport
Location
City:  Osijek, Virovitica-Podravina, Croatia
ICAO:LDOS
IATA:OSI

Details
Type:Airport (Aerodrome, Airfield)
Latitude:4527'46"N (45.462667)
Longitude:1848'37"E (18.810156)
Datum:WGS 1984
Elevation:290 ft (88 m)
Variation:4.51E (WMM2015 magnetic declination)
0.11 annual change
Runways:1
Longest:8199 × 148 ft (2499 × 45 m), paved

Time
Time Zone:UTC+1 (DST+2)
Local Time:

Weather
METAR:LDOS 261500Z 36017KT CAVOK 25/11 Q1011
TAF:LDOS 261125Z 2612/2712 24008KT CAVOK TX26/2612Z TN12/2703Z PROB30
TEMPO 2612/2616 TSRA FEW030CB BKN035
BECMG 2613/2615 02012KT PROB30
TEMPO 2615/2623 02015G25KT
BECMG 2700/2702 32005KT
BECMG 2710/2712 11006KT

Related Locations
Nearby:
Farthest:CHT: 11680 mi / 18797 km
Waitangi [Tuuta], CIT, NZ

Find:

   beyond  
but within

Other Information
Maps:
NOTAMs:
Links:
Sources:

  
flag of Croatia
flag of Virovitica-Podravina
  

Sectional Chart

Flight Planning
at skyvector.com

Satellite Image

Google Maps Satellite view

 

Copyright © 2004-2018 Karl L. Swartz. All rights reserved.
The Great Circle Mapper name and logo are trademarks of the Great Circle Mapper.
All other trademarks mentioned herein belong to their respective owners.
Please see credits for attibutions and further copyright information.

  Follow gcmap on Facebook Follow gcmap on Twitter Follow gcmap on Google+ GCmap on LinkedIn

hCard Microformat

Geo Microformat